TimeMST,TemperatureF,Dew PointF,Humidity,Sea Level PressureIn,VisibilityMPH,Wind Direction,Wind SpeedMPH,Gust SpeedMPH,PrecipitationIn,Events,Conditions,WindDirDegrees,DateUTC
12:15 AM,30.2,17.6,60,30.19,10.0,SSE,9.2,-,N/A,,Clear,150,2012-11-24 07:15:00
12:35 AM,30.2,17.6,60,30.19,10.0,SSE,12.7,-,N/A,,Clear,150,2012-11-24 07:35:00
12:55 AM,30.2,17.6,60,30.18,10.0,SSE,10.4,18.4,N/A,,Clear,150,2012-11-24 07:55:00
1:35 AM,30.2,17.6,60,30.18,10.0,SW,4.6,-,N/A,,Clear,220,2012-11-24 08:35:00
1:55 AM,28.4,17.6,64,30.17,10.0,SSW,5.8,-,N/A,,Clear,210,2012-11-24 08:55:00
2:15 AM,30.2,17.6,60,30.18,10.0,South,8.1,-,N/A,,Clear,170,2012-11-24 09:15:00
2:35 AM,28.4,17.6,64,30.17,10.0,SSW,8.1,-,N/A,,Clear,210,2012-11-24 09:35:00
2:55 AM,28.4,17.6,64,30.17,10.0,South,10.4,-,N/A,,Clear,180,2012-11-24 09:55:00
3:15 AM,28.4,17.6,64,30.16,10.0,South,9.2,-,N/A,,Clear,170,2012-11-24 10:15:00
3:35 AM,28.4,17.6,64,30.13,10.0,South,9.2,16.1,N/A,,Clear,190,2012-11-24 10:35:00
3:55 AM,30.2,17.6,60,-9999,10.0,WSW,13.8,19.6,N/A,,Clear,240,2012-11-24 10:55:00
4:15 AM,32.0,17.6,55,-9999,10.0,WSW,12.7,16.1,N/A,,Clear,240,2012-11-24 11:15:00
4:35 AM,32.0,15.8,51,-9999,10.0,WSW,13.8,21.9,N/A,,Clear,240,2012-11-24 11:35:00
4:55 AM,32.0,15.8,51,30.09,10.0,WSW,13.8,24.2,N/A,,Clear,250,2012-11-24 11:55:00
5:15 AM,32.0,15.8,51,30.10,10.0,SW,4.6,-,N/A,,Clear,220,2012-11-24 12:15:00
5:35 AM,28.4,17.6,64,30.11,10.0,ESE,10.4,-,N/A,,Clear,120,2012-11-24 12:35:00
5:55 AM,26.6,17.6,69,30.11,10.0,South,9.2,-,N/A,,Clear,170,2012-11-24 12:55:00
6:15 AM,28.4,17.6,64,30.10,10.0,South,6.9,-,N/A,,Clear,190,2012-11-24 13:15:00
6:35 AM,28.4,17.6,64,30.09,10.0,SSW,5.8,-,N/A,,Clear,200,2012-11-24 13:35:00
7:15 AM,26.6,17.6,69,-9999,10.0,SSW,5.8,-,N/A,,Clear,200,2012-11-24 14:15:00
7:35 AM,28.4,15.8,59,-9999,10.0,South,8.1,-,N/A,,Clear,180,2012-11-24 14:35:00
8:15 AM,30.2,14.0,51,30.09,10.0,South,5.8,-,N/A,,Clear,170,2012-11-24 15:15:00
8:35 AM,32.0,12.2,44,30.09,10.0,Calm,Calm,-,N/A,,Clear,0,2012-11-24 15:35:00
8:55 AM,33.8,12.2,41,30.09,10.0,ESE,5.8,-,N/A,,Clear,120,2012-11-24 15:55:00
9:15 AM,32.0,15.8,51,30.09,10.0,South,6.9,-,N/A,,Clear,180,2012-11-24 16:15:00
9:35 AM,32.0,15.8,51,30.10,10.0,SSE,6.9,-,N/A,,Clear,160,2012-11-24 16:35:00
10:15 AM,30.2,19.4,64,30.10,10.0,South,8.1,-,N/A,,Clear,190,2012-11-24 17:15:00
10:35 AM,30.2,19.4,64,30.10,10.0,South,5.8,-,N/A,,Clear,180,2012-11-24 17:35:00
10:55 AM,30.2,21.2,69,30.10,10.0,South,8.1,-,N/A,,Clear,190,2012-11-24 17:55:00
11:15 AM,32.0,21.2,64,30.09,10.0,South,9.2,-,N/A,,Clear,190,2012-11-24 18:15:00
11:35 AM,32.0,21.2,64,30.08,10.0,SSE,11.5,-,N/A,,Clear,160,2012-11-24 18:35:00
12:15 PM,41.0,14.0,33,30.05,10.0,WSW,12.7,-,N/A,,Clear,240,2012-11-24 19:15:00
12:35 PM,41.0,15.8,36,30.05,10.0,WSW,11.5,20.7,N/A,,Clear,240,2012-11-24 19:35:00
12:55 PM,41.0,17.6,39,30.05,10.0,SW,10.4,20.7,N/A,,Clear,220,2012-11-24 19:55:00
1:15 PM,41.0,19.4,42,30.05,10.0,SW,12.7,16.1,N/A,,Clear,230,2012-11-24 20:15:00
1:35 PM,41.0,17.6,39,30.04,10.0,WSW,13.8,20.7,N/A,,Clear,240,2012-11-24 20:35:00
1:55 PM,41.0,17.6,39,30.04,10.0,WSW,15.0,21.9,N/A,,Clear,250,2012-11-24 20:55:00
2:15 PM,41.0,17.6,39,30.03,10.0,WSW,17.3,25.3,N/A,,Clear,250,2012-11-24 21:15:00
2:35 PM,41.0,17.6,39,30.03,10.0,WSW,13.8,24.2,N/A,,Clear,250,2012-11-24 21:35:00
2:55 PM,41.0,17.6,39,30.02,10.0,WSW,12.7,19.6,N/A,,Clear,240,2012-11-24 21:55:00
3:15 PM,41.0,17.6,39,30.02,10.0,WSW,10.4,19.6,N/A,,Clear,240,2012-11-24 22:15:00
3:35 PM,41.0,17.6,39,30.02,10.0,West,11.5,18.4,N/A,,Clear,260,2012-11-24 22:35:00
3:55 PM,41.0,17.6,39,30.02,10.0,West,9.2,-,N/A,,Clear,270,2012-11-24 22:55:00
4:15 PM,41.0,17.6,39,30.02,10.0,WSW,8.1,-,N/A,,Mostly Cloudy,240,2012-11-24 23:15:00
4:35 PM,39.2,19.4,45,30.02,10.0,Calm,Calm,-,N/A,,Overcast,0,2012-11-24 23:35:00
4:55 PM,37.4,17.6,45,30.02,10.0,Calm,Calm,-,N/A,,Overcast,0,2012-11-24 23:55:00
5:15 PM,37.4,19.4,48,30.02,10.0,West,5.8,-,N/A,,Overcast,280,2012-11-25 00:15:00
5:35 PM,37.4,19.4,48,30.02,10.0,South,8.1,-,N/A,,Overcast,170,2012-11-25 00:35:00
5:55 PM,37.4,19.4,48,30.02,10.0,Calm,Calm,-,N/A,,Overcast,0,2012-11-25 00:55:00
6:15 PM,35.6,21.2,56,30.01,10.0,SW,3.5,-,N/A,,Overcast,230,2012-11-25 01:15:00
6:35 PM,35.6,23.0,60,30.01,10.0,WSW,8.1,-,N/A,,Mostly Cloudy,240,2012-11-25 01:35:00
7:15 PM,33.8,23.0,65,30.01,10.0,SSW,3.5,-,N/A,,Mostly Cloudy,210,2012-11-25 02:15:00
7:35 PM,33.8,24.8,70,30.00,10.0,SSW,6.9,-,N/A,,Mostly Cloudy,200,2012-11-25 02:35:00
7:55 PM,32.0,24.8,75,30.00,10.0,SW,6.9,-,N/A,,Scattered Clouds,220,2012-11-25 02:55:00
8:15 PM,32.0,26.6,80,29.99,10.0,SW,5.8,-,N/A,,Scattered Clouds,220,2012-11-25 03:15:00
8:35 PM,32.0,26.6,80,30.00,10.0,SW,4.6,-,N/A,,Mostly Cloudy,220,2012-11-25 03:35:00
8:55 PM,32.0,26.6,80,29.99,10.0,WSW,9.2,-,N/A,,Overcast,240,2012-11-25 03:55:00
9:15 PM,32.0,26.6,80,30.00,10.0,SSW,4.6,-,N/A,,Overcast,210,2012-11-25 04:15:00
9:35 PM,32.0,26.6,80,30.00,10.0,South,5.8,-,N/A,,Overcast,190,2012-11-25 04:35:00
9:55 PM,32.0,26.6,80,29.99,10.0,SSW,5.8,-,N/A,,Overcast,200,2012-11-25 04:55:00
10:15 PM,32.0,26.6,80,29.99,10.0,South,9.2,-,N/A,,Overcast,180,2012-11-25 05:15:00
10:35 PM,32.0,26.6,80,29.98,10.0,South,6.9,-,N/A,,Overcast,180,2012-11-25 05:35:00
10:55 PM,32.0,26.6,80,29.98,10.0,South,6.9,-,N/A,,Overcast,190,2012-11-25 05:55:00
11:15 PM,32.0,26.6,80,29.98,10.0,South,8.1,-,N/A,,Overcast,190,2012-11-25 06:15:00
11:35 PM,30.2,26.6,86,29.98,10.0,South,4.6,-,N/A,,Overcast,190,2012-11-25 06:35:00
11:55 PM,30.2,26.6,86,29.96,10.0,SSW,3.5,-,N/A,,Overcast,200,2012-11-25 06:55:00